Simultaneous Nadir Overpasses (SNOs) Predictions

Prediction of SNOs near equator between AQUA and NPP Satellite Orbit:

Table of predicted SNOs near equator for the next 14.0 days since TLE Epoch: 8/17/2015
Index Date (AQUA) Time (AQUA) AQUA Lat,Lon Date (NPP) Time (NPP) NPP Lat,Lon Distance(km) Time Diff (sec)
1 08/17/2015 21:47:50 29.96,-127.78 08/17/2015 21:37:58 30.07,-127.35 42.71 592
2 08/17/2015 22:37:13 -29.98, 39.87 08/17/2015 22:28:38 -29.99, 40.00 12.09 515
3 08/17/2015 23:22:04 13.14,-148.52 08/17/2015 23:14:39 13.14,-148.50 1.30 445
4 08/18/2015 00:05:48 7.28, 23.52 08/17/2015 23:59:32 7.31, 23.43 10.13 376
5 08/18/2015 00:54:04 -11.82,-167.88 08/18/2015 00:49:03 -11.89,-168.23 38.97 301
6 08/18/2015 01:42:10 16.40, 0.79 08/18/2015 01:38:25 16.52, 0.18 66.98 225
7 08/18/2015 02:30:26 -20.93, 169.45 08/18/2015 02:27:56 -21.09, 168.58 92.52 150
8 08/20/2015 14:04:18 29.98, -11.90 08/20/2015 13:54:50 30.04, -11.57 32.53 568
9 08/20/2015 14:53:41 -29.99, 155.75 08/20/2015 14:45:31 -30.02, 155.76 3.06 490
10 08/20/2015 15:36:15 4.94, -30.86 08/20/2015 15:29:11 4.94, -30.87 0.65 424
11 08/20/2015 16:21:50 8.77, 139.72 08/20/2015 16:15:58 8.81, 139.54 19.81 352
12 08/20/2015 17:10:06 -13.31, -51.67 08/20/2015 17:05:29 -13.38, -52.11 48.41 277
13 08/20/2015 17:58:12 17.89, 117.01 08/20/2015 17:54:51 18.02, 116.31 75.79 201
14 08/23/2015 06:20:44 29.97, 103.98 08/23/2015 06:11:41 30.02, 104.21 22.34 543
15 08/23/2015 07:08:01 -22.40, -86.48 08/23/2015 07:00:12 -22.40, -86.47 1.15 469
16 08/23/2015 07:49:47 -5.66, 87.27 08/23/2015 07:43:03 -5.66, 87.28 0.81 404
17 08/23/2015 08:37:54 10.18,-104.09 08/23/2015 08:32:26 10.24,-104.36 29.69 328
18 08/23/2015 09:26:09 -14.78, 64.53 08/23/2015 09:21:56 -14.87, 64.01 57.76 253
19 08/23/2015 10:14:16 19.30,-126.78 08/23/2015 10:11:19 19.45,-127.57 84.57 177
20 08/25/2015 21:47:41 -29.97, 52.24 08/25/2015 21:37:46 -30.08, 52.67 42.63 595
21 08/25/2015 22:37:11 29.97,-140.13 08/25/2015 22:28:33 30.00,-140.01 11.97 518
22 08/25/2015 23:21:52 -13.01, 31.54 08/25/2015 23:14:24 -13.00, 31.55 1.28 448
23 08/26/2015 00:05:49 -7.16,-156.52 08/25/2015 23:59:30 -7.15,-156.61 10.62 379
24 08/26/2015 00:53:57 11.63, 12.11 08/26/2015 00:48:53 11.73, 11.76 39.57 304
25 08/26/2015 01:42:12 -16.22,-179.26 08/26/2015 01:38:23 -16.36,-179.87 67.08 229
26 08/26/2015 02:30:19 20.75, -10.56 08/26/2015 02:27:46 20.93, -11.44 93.14 153
27 08/28/2015 14:04:08 -29.99, 168.12 08/28/2015 13:54:38 -30.07, 168.44 32.09 570
28 08/28/2015 14:53:34 29.76, -24.19 08/28/2015 14:45:21 29.75, -24.17 1.91 493
29 08/28/2015 15:36:04 -4.88, 149.18 08/28/2015 15:28:58 -4.88, 149.17 1.27 426
30 08/28/2015 16:21:52 -8.59, -40.33 08/28/2015 16:15:57 -8.64, -40.50 20.35 355
31 08/28/2015 17:09:58 13.18, 128.33 08/28/2015 17:05:19 13.27, 127.89 49.24 279
32 08/28/2015 17:58:14 -17.70, -63.04 08/28/2015 17:54:50 -17.84, -63.74 76.31 204




NCC Satellite Simultaneous Nadir Overpasses (SNOs) Prediction Service
